Location: Newark
(23.0150°N, 109.5536°W)
Time: 05:49:14
(UTC+00:00)

N. Korean satellite - Visible Passes

Search period start: 14 December 2019 00:00
Search period end: 24 December 2019 00:00
Orbit: 455 x 507 km, 97.2° (Epoch: 13 December)

Date Brightness Start Highest point End Pass type
(mag) Time Alt. Az. Time Alt. Az. Time Alt. Az.
14 Dec 9.7 01:16:08 10° SSW 01:18:56 21° W 01:21:45 10° NW visible
14 Dec 6.9 12:51:03 10° NNE 12:54:28 64° E 12:57:50 10° S visible
15 Dec 9.0 12:26:12 10° NE 12:29:00 23° E 12:31:48 10° SSE visible
17 Dec 10.2 01:34:46 10° WSW 01:36:03 11° W 01:37:20 10° WNW visible
17 Dec 6.4 13:08:04 10° N 13:11:28 62° WNW 13:14:50 10° SSW visible
18 Dec 9.2 01:07:24 10° SSW 01:10:34 27° W 01:13:43 10° NW visible
18 Dec 7.6 12:42:45 10° NNE 12:46:03 45° E 12:49:19 10° S visible
19 Dec 9.5 12:18:11 10° NE 12:20:34 18° E 12:22:56 10° SE visible
20 Dec 7.2 13:25:21 10° NNW 13:28:25 31° WNW 13:31:28 10° SW visible
21 Dec 9.9 01:25:28 10° SW 01:27:38 15° W 01:29:48 10° WNW visible
21 Dec 6.3 12:59:37 10° N 13:03:03 88° W 13:06:27 10° SSW visible
22 Dec 8.6 00:58:47 10° SSW 01:02:09 35° W 01:05:31 10° NNW visible
22 Dec 8.3 12:34:30 10° NNE 12:37:36 32° E 12:40:42 10° SSE visible
23 Dec 9.8 12:10:23 10° ENE 12:12:06 13° E 12:13:50 10° SE visible
